MERIDIAN 9 (45254 NORAD) Tracking and Keplerian Element Data

This shows tracking and keplerian element data for the satellite.

Feedback or suggestion? Click here.




ElementValue
Catalog45254
NameMERIDIAN 9
Epoch Orbit84
Epoch Day93.46435434
Epoch Year2020
RAAN220.2872
Inclination62.8489
Eccentricity0.7196695
Argument of Perigee295.1593
Mean Anonmoly61.3907
Mean Motion2.00675369
Decay Rate-1.21E-06
L11 45254U 20015A 20093.46435434 -.00000121 00000-0 00000-0 0 9990
L22 45254 62.8489 220.2872 7196695 295.1593 61.3907 2.00675369 845

Live tracking and technical data element details for MERIDIAN 9 (NORAD 45254). MERIDIAN 9 can be tracked NOW for your location showing map with azimuth and elevation plus other details from your city location.

Track the satellite on the map from your city or location and see movement details for azimuth, elevation, latitude, longitude, range, height, and movement on the map or in text.







IsCatalogInMostPopularTable: catalog: 45254, numindb: 10
Update: records affected: 1



GetName: 45254 MERIDIAN 9

Hit Count: updated at: Fri, 03 Apr 2020 23:00:08 GMT